Date,TemperatureHighF,TemperatureAvgF,TemperatureLowF,DewpointHighF,DewpointAvgF,DewpointLowF,HumidityHigh,HumidityAvg,HumidityLow,PressureMaxIn,PressureMinIn,WindSpeedMaxMPH,WindSpeedAvgMPH,GustSpeedMaxMPH,PrecipitationSumIn
2013-5-1,84.4,70.7,58.1,69.1,62.4,57.1,99,76,56,30.17,30.04,12,3,18,0.00
2013-5-2,85.0,70.4,57.3,69.4,61.3,55.1,94,74,53,30.16,30.06,11,2,15,0.00
2013-5-3,82.1,68.4,58.3,65.4,58.9,54.0,94,73,49,30.09,29.94,17,5,21,0.00
2013-5-4,63.2,59.5,55.0,58.6,53.8,41.4,100,83,55,29.94,29.85,16,5,24,0.85
2013-5-5,61.9,56.1,53.2,61.6,55.9,52.8,100,99,93,29.87,29.72,14,3,20,0.81
2013-5-6,66.0,56.8,50.4,59.5,53.7,50.4,100,90,71,29.87,29.73,11,2,14,0.29
2013-5-7,72.2,59.8,48.6,62.5,56.0,48.6,100,88,64,29.93,29.83,7,1,9,0.05
2013-5-8,77.3,64.8,57.8,70.5,62.4,57.8,100,92,70,30.02,29.88,11,1,18,0.01
2013-5-9,83.6,68.9,55.9,72.3,64.1,55.7,100,86,61,30.07,29.94,10,1,17,0.02
2013-5-10,74.0,66.9,58.2,68.8,63.0,57.3,100,88,72,30.03,29.88,15,2,25,0.00
2013-5-11,78.5,68.2,60.0,70.6,63.3,55.1,100,85,65,29.96,29.80,12,4,20,0.00
2013-5-12,67.5,60.4,52.0,55.6,42.9,35.4,86,54,33,30.08,29.94,12,3,20,0.00
2013-5-13,70.5,56.2,40.8,48.6,42.5,35.7,92,64,33,30.17,30.07,12,2,20,0.00
2013-5-14,79.1,62.1,42.9,63.9,52.3,39.9,100,72,52,30.17,29.97,15,4,22,0.00
2013-5-15,88.9,74.9,62.7,71.6,64.5,59.2,90,72,50,30.08,29.92,13,4,20,0.00
2013-5-16,87.0,73.0,61.0,72.1,65.6,58.7,96,79,56,30.01,29.91,11,2,15,0.00
2013-5-17,84.1,72.7,62.6,74.7,68.7,61.3,100,88,61,30.05,29.95,6,0,9,0.10
2013-5-18,75.9,71.2,67.1,74.5,70.7,67.1,100,98,89,30.01,29.94,8,0,12,0.17
2013-5-19,80.2,70.2,65.4,77.7,69.8,65.4,100,99,86,30.00,29.93,11,1,16,0.03
2013-5-20,90.3,75.1,61.9,79.7,70.9,60.8,100,88,65,30.06,29.92,7,0,10,0.00
2013-5-21,93.7,77.4,66.1,83.2,72.5,65.8,100,86,62,29.99,29.85,13,1,20,0.00
2013-5-22,87.2,74.3,64.9,81.3,70.2,64.8,100,88,66,29.91,29.76,12,2,20,0.00
2013-5-23,83.9,72.6,64.9,71.7,67.1,60.4,100,84,57,29.94,29.81,15,3,25,0.02
2013-5-24,73.0,65.0,57.8,70.3,54.7,48.5,100,71,45,30.21,29.94,12,4,20,0.00
2013-5-25,80.1,63.9,47.2,61.8,51.9,44.5,100,68,33,30.27,30.09,8,1,12,0.00
2013-5-26,83.8,69.0,56.5,66.8,59.8,53.8,99,75,48,30.22,30.10,7,0,10,0.02
2013-5-27,87.0,72.8,57.2,70.3,63.8,55.3,96,75,52,30.15,30.01,13,2,20,0.00
2013-5-28,89.7,76.5,63.1,73.7,68.0,61.6,97,77,52,30.11,29.99,12,2,20,0.00
2013-5-29,93.1,78.4,63.1,92.8,71.6,61.1,100,81,55,30.14,30.01,12,1,18,0.00
2013-5-30,95.5,78.9,64.1,78.0,70.2,61.6,96,77,48,30.16,30.01,8,0,12,0.00
2013-5-31,92.3,73.7,64.3,75.0,67.6,62.6,97,83,48,30.10,29.99,12,2,20,0.00